Location: Cortada Guamacho
(10.5667°N, 67.0833°W)
Time: 10:46:05
(UTC+00:00)

SWIFT - Pass Details

Date: 11 July 2022
Orbit: 539 x 553 km, 20.6° (Epoch: 14 August)

Event Time Altitude Azimuth Distance (km) Brightness Sun altitude
Rises 00:25:27 0° 292° (WNW) 2,708 7.4 -20.9°
Reaches altitude 10° 00:28:12 10° 309° (NW) 1,814 6.1 -21.5°
Maximum altitude 00:31:23 20° 358° (N) 1,279 4.5 -22.2°
Enters shadow 00:33:22 15° 33° (NNE) 1,508 4.5 -22.6°
